AFR29 NTAA-KLAX

Flight info

Callsign AFR29
Flight time N/A
Altitude 26000
Route IKELO DCT ORARE G575 C/REPAR/M200F450F600 FICKY DCT GOATZ/N0622F370 DCT GOATZ
Aircraft CONC/H-SDFHIRY/C

Departure

Time N/A
Airport Fa'a'ā International Airport (NTAA)

Arrival

Time 2026-04-21 22:43
Airport Los Angeles International Airport (KLAX)
Time Latitude Longitude Altitude Speed Heading
2026-04-21 22:15 32.02229 -120.61321 46095 ft 751 kts 49°
2026-04-21 22:15 32.05513 -120.56481 45102 ft 742 kts 49°
2026-04-21 22:15 32.08659 -120.51784 44178 ft 734 kts 49°
2026-04-21 22:15 32.11783 -120.47061 43298 ft 725 kts 50°
2026-04-21 22:16 32.14841 -120.42378 42514 ft 717 kts 50°
2026-04-21 22:16 32.17838 -120.37720 41751 ft 709 kts 50°
2026-04-21 22:16 32.20763 -120.33088 41212 ft 696 kts 51°
2026-04-21 22:16 32.23575 -120.28516 40837 ft 680 kts 51°
2026-04-21 22:17 32.26267 -120.24046 40431 ft 652 kts 52°
2026-04-21 22:17 32.28800 -120.19771 39949 ft 621 kts 52°
2026-04-21 22:17 32.31240 -120.15622 39347 ft 606 kts 52°
2026-04-21 22:17 32.33650 -120.11523 38247 ft 612 kts 52°
2026-04-21 22:18 32.36130 -120.07342 37404 ft 625 kts 52°
2026-04-21 22:18 32.38658 -120.03118 37104 ft 632 kts 52°
2026-04-21 22:18 32.41171 -119.98937 37105 ft 630 kts 52°
2026-04-21 22:19 32.46181 -119.90576 37125 ft 624 kts 52°
2026-04-21 22:19 32.51178 -119.82145 37127 ft 625 kts 52°
2026-04-21 22:20 32.56150 -119.73679 37129 ft 626 kts 53°
2026-04-21 22:20 32.61084 -119.65289 36675 ft 603 kts 52°
2026-04-21 22:20 32.63469 -119.61255 35161 ft 597 kts 52°
2026-04-21 22:21 32.65879 -119.57198 33042 ft 607 kts 53°
2026-04-21 22:21 32.68338 -119.53064 31108 ft 618 kts 54°
2026-04-21 22:21 32.70808 -119.48895 29818 ft 618 kts 54°
2026-04-21 22:21 32.73259 -119.44733 28982 ft 611 kts 54°
2026-04-21 22:22 32.75677 -119.40609 28212 ft 604 kts 55°
2026-04-21 22:22 32.78065 -119.36527 27426 ft 598 kts 55°
2026-04-21 22:22 32.80421 -119.32497 26635 ft 591 kts 55°
2026-04-21 22:22 32.82761 -119.28502 25834 ft 585 kts 55°
2026-04-21 22:23 32.85047 -119.24608 25071 ft 578 kts 55°
2026-04-21 22:23 32.87336 -119.20710 24266 ft 571 kts 55°
2026-04-21 22:23 32.89596 -119.16855 23449 ft 564 kts 55°
2026-04-21 22:23 32.91827 -119.13040 22656 ft 557 kts 55°
2026-04-21 22:24 32.94023 -119.09277 21861 ft 550 kts 55°
2026-04-21 22:24 32.96189 -119.05565 21081 ft 543 kts 55°
2026-04-21 22:24 32.98324 -119.01892 20316 ft 535 kts 55°
2026-04-21 22:24 33.00424 -118.98266 19561 ft 529 kts 55°
2026-04-21 22:25 33.02498 -118.94679 18822 ft 522 kts 55°
2026-04-21 22:25 33.04544 -118.91137 18095 ft 516 kts 55°
2026-04-21 22:25 33.06568 -118.87642 17382 ft 510 kts 55°
2026-04-21 22:25 33.08575 -118.84189 16686 ft 503 kts 56°
2026-04-21 22:26 33.10567 -118.80758 16128 ft 498 kts 56°
2026-04-21 22:26 33.12496 -118.77428 15983 ft 476 kts 56°
2026-04-21 22:26 33.14326 -118.74262 15989 ft 451 kts 56°
2026-04-21 22:26 33.16046 -118.71282 15995 ft 421 kts 56°
2026-04-21 22:27 33.17668 -118.68519 15998 ft 407 kts 51°
2026-04-21 22:27 33.19660 -118.66073 16002 ft 406 kts 40°
2026-04-21 22:27 33.21757 -118.63890 16004 ft 405 kts 39°
2026-04-21 22:27 33.23897 -118.61701 16002 ft 405 kts 39°
2026-04-21 22:28 33.26050 -118.59512 16000 ft 405 kts 39°
2026-04-21 22:28 33.28197 -118.57328 15999 ft 405 kts 39°
2026-04-21 22:28 33.30336 -118.55139 15998 ft 405 kts 39°
2026-04-21 22:28 33.32475 -118.52941 15998 ft 405 kts 40°
2026-04-21 22:29 33.34616 -118.50736 15997 ft 405 kts 40°
2026-04-21 22:29 33.36732 -118.48555 15906 ft 402 kts 40°
2026-04-21 22:29 33.38809 -118.46415 14893 ft 390 kts 40°
2026-04-21 22:29 33.40874 -118.44295 13260 ft 392 kts 40°
2026-04-21 22:30 33.42924 -118.42191 12066 ft 383 kts 41°
2026-04-21 22:30 33.44923 -118.40133 11022 ft 374 kts 41°
2026-04-21 22:30 33.46861 -118.38134 10176 ft 360 kts 40°
2026-04-21 22:30 33.48697 -118.36234 9796 ft 335 kts 40°
2026-04-21 22:31 33.50405 -118.34468 9515 ft 313 kts 40°
2026-04-21 22:31 33.52017 -118.32806 8962 ft 305 kts 40°
2026-04-21 22:31 33.53626 -118.31147 8246 ft 303 kts 40°
2026-04-21 22:31 33.55210 -118.29510 7658 ft 298 kts 40°
2026-04-21 22:32 33.56659 -118.28012 7166 ft 301 kts 40°
2026-04-21 22:32 33.58253 -118.26361 6982 ft 303 kts 40°
2026-04-21 22:32 33.59852 -118.24704 6989 ft 304 kts 41°
2026-04-21 22:32 33.61454 -118.23045 6996 ft 304 kts 41°
2026-04-21 22:33 33.63007 -118.21435 6997 ft 304 kts 41°
2026-04-21 22:33 33.64590 -118.19794 6997 ft 304 kts 41°
2026-04-21 22:33 33.66171 -118.18155 6990 ft 290 kts 41°
2026-04-21 22:33 33.67631 -118.16642 6977 ft 264 kts 41°
2026-04-21 22:34 33.68967 -118.15254 6976 ft 248 kts 41°
2026-04-21 22:34 33.70269 -118.13900 6984 ft 247 kts 41°
2026-04-21 22:34 33.71708 -118.12809 6965 ft 247 kts 10°
2026-04-21 22:34 33.73408 -118.12711 6992 ft 244 kts 355°
2026-04-21 22:35 33.75087 -118.12803 6986 ft 244 kts 355°
2026-04-21 22:35 33.76784 -118.12913 6985 ft 244 kts 354°
2026-04-21 22:35 33.78477 -118.13018 6983 ft 244 kts
2026-04-21 22:35 33.80129 -118.12538 6987 ft 246 kts 19°
2026-04-21 22:36 33.83320 -118.11071 6318 ft 243 kts 20°
2026-04-21 22:36 33.84962 -118.10728 5905 ft 240 kts 358°
2026-04-21 22:36 33.86617 -118.10785 5506 ft 238 kts 356°
2026-04-21 22:37 33.88260 -118.10884 5106 ft 235 kts 356°
2026-04-21 22:37 33.89897 -118.10993 4986 ft 233 kts 356°
2026-04-21 22:37 33.91433 -118.11098 4876 ft 215 kts 356°
2026-04-21 22:37 33.92921 -118.11201 4682 ft 213 kts 356°
2026-04-21 22:38 33.94349 -118.11470 4441 ft 211 kts 330°
2026-04-21 22:38 33.95541 -118.12468 4194 ft 209 kts 308°
2026-04-21 22:38 33.96095 -118.13998 3990 ft 204 kts 265°
2026-04-21 22:38 33.95984 -118.15678 3769 ft 200 kts 263°
2026-04-21 22:39 33.95868 -118.17345 3518 ft 200 kts 262°
2026-04-21 22:39 33.95712 -118.19003 3258 ft 199 kts 261°
2026-04-21 22:39 33.95539 -118.20661 2995 ft 198 kts 261°
2026-04-21 22:39 33.95369 -118.22312 2732 ft 198 kts 261°
2026-04-21 22:40 33.95205 -118.23927 2473 ft 196 kts 261°
2026-04-21 22:40 33.95036 -118.25575 2210 ft 195 kts 261°
2026-04-21 22:40 33.94873 -118.27169 1955 ft 193 kts 261°
2026-04-21 22:40 33.94709 -118.28772 1699 ft 193 kts 261°
2026-04-21 22:41 33.94547 -118.30352 1445 ft 186 kts 262°
2026-04-21 22:41 33.94389 -118.31904 1198 ft 187 kts 262°
2026-04-21 22:41 33.94230 -118.33451 950 ft 184 kts 262°
2026-04-21 22:41 33.94086 -118.34870 721 ft 157 kts 262°
2026-04-21 22:42 33.93956 -118.36140 521 ft 151 kts 260°
2026-04-21 22:42 33.93828 -118.37385 318 ft 149 kts 260°
2026-04-21 22:42 33.93704 -118.38615 159 ft 146 kts 259°
2026-04-21 22:42 33.93583 -118.39764 138 ft 115 kts 263°
2026-04-21 22:43 33.93532 -118.40302 138 ft 37 kts 268°
2026-04-21 22:43 33.93567 -118.40572 138 ft 21 kts 290°
2026-04-21 22:43 33.93594 -118.40739 138 ft 19 kts 265°
2026-04-21 22:43 33.93604 -118.40861 138 ft 16 kts 300°
2026-04-21 22:44 33.93703 -118.40913 138 ft 17 kts 351°
2026-04-21 22:44 33.93793 -118.40925 138 ft 13 kts 354°
2026-04-21 22:44 33.93852 -118.40980 138 ft 13 kts 281°
2026-04-21 22:44 33.93847 -118.41095 138 ft 12 kts 263°
2026-04-21 22:45 33.93884 -118.41180 138 ft 14 kts 346°
2026-04-21 22:45 33.93975 -118.41193 138 ft 11 kts
2026-04-21 22:45 33.94014 -118.41114 138 ft 8 kts 82°
2026-04-21 22:45 33.94016 -118.41094 138 ft 0 kts 81°
2026-04-21 22:46 33.94017 -118.41086 138 ft 1 kts 81°
2026-04-21 22:46 33.94017 -118.41084 138 ft 0 kts 81°